Location: *
(50.9167°S, 179.4000°W)
Time: 12:04:58
(UTC+00:00)

ATLAS 2AS CENTAUR R/B - Pass Details

Date: 23 June 2024
Orbit: 1019 x 1192 km, 63.7° (Epoch: 21 July)

Event Time Altitude Azimuth Distance (km) Brightness Sun altitude
Exits shadow 15:30:23 26° 157° (SSE) 2,080 4.4 -41.3°
Drops below altitude 10° 15:34:35 10° 126° (SE) 3,071 5.7 -40.6°
Sets 15:37:47 0° 115° (ESE) 4,056 6.6 -40.2°
